Weather History for Ann Arbor, MI

Change the Weather History Date:

Monday, January 13, 2014

  Actual Average Record
Temperature  
Mean Temperature 38 °F -  
Max Temperature 42 °F 28 °F 55 °F (2005)
Min Temperature 33 °F 13 °F -5 °F (2009)
Degree Days  
Heating Degree Days 28    
Moisture  
Dew Point 32 °F    
Average Humidity 79    
Maximum Humidity 96    
Minimum Humidity 70    
Precipitation  
Precipitation 0.00 in - - ()
Sea Level Pressure  
Sea Level Pressure 29.66 in    
Wind  
Wind Speed 9 mph (SW)    
Max Wind Speed 13 mph    
Max Gust Speed -    
Visibility 10 miles    
Events      
Averages and records for this station are not official NWS values.
T = Trace of Precipitation, MM = Missing Value Source: NWS Daily Summary

Daily Weather History Graph

Daily Weather History Graph

Search for Another Location

Airport:

Trip Planner

Search our weather history database for the weather conditions in past years. The results will help you decide how hot, cold, wet, or windy it might be!

Date:

Astronomy

Jan. 13, 2014 Rise Set
Actual Time 8:01 AM EST 5:25 PM EST
Civil Twilight 7:30 AM EST 5:56 PM EST
Nautical Twilight 6:56 AM EST 6:31 PM EST
Astronomical Twilight 6:22 AM EST 7:05 PM EST
Moon 3:40 PM EST (1/13) 5:49 AM EST (1/13)
Length of Visible Light 10h 26m
Length of Day
9h 23m
Waxing Gibbous, 95% of the Moon is Illuminated
Jan 13
Waxing Gibbous
Jan 15
Full
Jan 24
Last Quarter
Jan 30
New
Feb 6
First Quarter

Hourly Weather History & Observations

Time (EST) Temp. Windchill Dew Point Humidity Pressure Visibility Wind Dir Wind Speed Gust Speed Precip Events Conditions
12:53 AM 34.0 °F 26.6 °F 28.9 °F 82% 29.76 in 10.0 mi SSW 9.2 mph - N/A   Clear
1:53 AM 35.1 °F 27.4 °F 28.9 °F 78% 29.75 in 10.0 mi SSW 10.4 mph - N/A   Clear
2:53 AM 35.1 °F 27.9 °F 28.9 °F 78% 29.74 in 10.0 mi SSW 9.2 mph - N/A   Clear
3:53 AM 35.1 °F 27.9 °F 30.0 °F 82% 29.72 in 10.0 mi SSW 9.2 mph - N/A   Clear
4:53 AM 35.1 °F 27.9 °F 28.9 °F 78% 29.70 in 10.0 mi SSW 9.2 mph - N/A   Clear
5:53 AM 35.1 °F 27.4 °F 28.9 °F 78% 29.68 in 10.0 mi SSW 10.4 mph - N/A   Clear
6:53 AM 35.1 °F 27.9 °F 28.9 °F 78% 29.68 in 10.0 mi SSW 9.2 mph - N/A   Clear
7:53 AM 36.0 °F 31.1 °F 28.9 °F 76% 29.66 in 10.0 mi SSW 5.8 mph - N/A   Clear
8:53 AM 37.0 °F 31.0 °F 30.0 °F 76% 29.65 in 10.0 mi SSW 8.1 mph - N/A   Clear
9:53 AM 37.9 °F 32.7 °F 30.9 °F 76% 29.65 in 10.0 mi SSW 6.9 mph - N/A   Clear
10:53 AM 39.0 °F 32.3 °F 30.9 °F 73% 29.66 in 10.0 mi SSW 10.4 mph - N/A   Clear
11:53 AM 39.9 °F 33.9 °F 32.0 °F 73% 29.63 in 10.0 mi SSW 9.2 mph - N/A   Clear
12:53 PM 41.0 °F 35.2 °F 32.0 °F 70% 29.60 in 10.0 mi SSW 9.2 mph - N/A   Clear
1:53 PM 41.0 °F 35.8 °F 33.1 °F 73% 29.58 in 10.0 mi SSW 8.1 mph - N/A   Overcast
2:53 PM 41.0 °F 35.8 °F 33.1 °F 73% 29.58 in 10.0 mi SSW 8.1 mph - N/A   Overcast
3:53 PM 42.1 °F 35.7 °F 35.1 °F 76% 29.59 in 10.0 mi SW 11.5 mph - N/A   Overcast
4:53 PM 42.1 °F 35.2 °F 35.1 °F 76% 29.59 in 10.0 mi SW 12.7 mph - N/A   Clear
5:53 PM 41.0 °F 35.2 °F 35.1 °F 79% 29.62 in 10.0 mi SW 9.2 mph - N/A   Partly Cloudy
6:53 PM 39.9 °F 34.5 °F 36.0 °F 86% 29.63 in 10.0 mi SW 8.1 mph - N/A   Overcast
7:53 PM 39.0 °F 33.4 °F 36.0 °F 89% 29.64 in 10.0 mi SW 8.1 mph - N/A   Partly Cloudy
8:53 PM 37.0 °F 32.4 °F 34.0 °F 89% 29.65 in 10.0 mi SW 5.8 mph - N/A   Clear
9:53 PM 33.1 °F 27.7 °F 32.0 °F 96% 29.65 in 6.0 mi WSW 5.8 mph - N/A   Clear
10:53 PM 37.0 °F 31.0 °F 32.0 °F 82% 29.66 in 10.0 mi West 8.1 mph - N/A   Clear
11:53 PM 35.1 °F 27.9 °F 30.9 °F 85% 29.68 in 10.0 mi West 9.2 mph - N/A   Clear